Home   Weather   Hommersåk   Past weeks

Flag for Norway Past Weather in Hommersåk, Norway — Yesterday and Last 2 Weeks

39 °F

Light rain. Partly sunny.

Feels Like: 34 °F
Forecast: 49 / 54 °F
Wind: 7 mph from Northeast

Location: Stavanger / Sola

Current Time: Oct 23, 2016 at 10:03:17 AM

Latest Report: Oct 23, 2016 at 9:20 AM

Visibility: N/A

Pressure: 30.21 "Hg

Humidity: 75%

Dew Point: 32 °F

Location of HommersåkLocation

Past Weather in Hommersåk — Graph


Hommersåk Temperature Yesterday

Maximum temperature yesterday: 48 °F (at 1:20 PM)
Minimum temperature yesterday: 37 °F (at 12:20 AM)
Average temperature yesterday: 44 °F

High & Low Weather Summary for the Past Weeks

High57 °F (Oct 8, 2:20 PM)100% (Oct 20, 2:50 AM)30.54 "Hg (Oct 20, 2:50 AM)
Low36 °F (Oct 9, 5:50 AM)30% (Oct 15, 12:20 PM)29.89 "Hg (Oct 18, 4:20 PM)
Average48 °F66%30.28 "Hg
* Reported Oct 8 8:20 AM — Oct 23 8:50 AM, Hommersåk, Weather by CustomWeather, © 2016

Note: Actual official high and low records may vary slightly from our data, if they occured in-between our weather recording intervals... More about our weather records


Hommersåk Weather History for the Previous 24 Hours

Scroll right to see more
Time TempWeatherWind HumidityBarometerVisibility
8:50 AM
Sun, Oct 23
39 °FLight rain. Broken clouds.5 mph81%30.21 "HgN/A
8:20 AM37 °FLight rain. Partly cloudy.3 mph87%30.21 "HgN/A
7:50 AM37 °FLight rain. Partly cloudy.6 mph81%30.21 "HgN/A
7:20 AM39 °FLight rain. Partly cloudy.12 mph75%30.21 "HgN/A
6:50 AM41 °FPassing clouds.9 mph70%30.21 "HgN/A
6:20 AM41 °FPassing clouds.9 mph66%30.21 "HgN/A
5:50 AM43 °FPassing clouds.9 mph57%30.21 "HgN/A
4:50 AM43 °FOvercast.5 mph57%30.21 "HgN/A
3:50 AM43 °FPassing clouds.5 mph57%30.21 "HgN/A
2:50 AM43 °FPassing clouds.5 mph57%30.21 "HgN/A
1:50 AM43 °FPassing clouds.6 mph57%30.24 "HgN/A
12:50 AM43 °FPassing clouds.6 mph53%30.24 "HgN/A
11:50 PM
Sat, Oct 22
43 °FPassing clouds.10 mph53%30.24 "HgN/A
11:20 PM43 °FPassing clouds.8 mph49%30.24 "HgN/A
10:50 PM43 °FPassing clouds.9 mph49%30.24 "HgN/A
10:20 PM43 °FPartly cloudy.10 mph49%30.24 "HgN/A
9:50 PM43 °FPartly cloudy.10 mph49%30.24 "HgN/A
9:20 PM43 °FPassing clouds.12 mph53%30.24 "HgN/A
8:50 PM43 °FPartly cloudy.15 mph53%30.27 "HgN/A
8:20 PM43 °FPartly cloudy.12 mph53%30.24 "HgN/A
7:50 PM43 °FPassing clouds.9 mph53%30.24 "HgN/A
7:20 PM43 °FPassing clouds.8 mph57%30.24 "HgN/A
6:50 PM45 °FPassing clouds.5 mph49%30.24 "HgN/A
6:20 PM45 °FPassing clouds.9 mph49%30.24 "HgN/A
5:50 PM46 °FBroken clouds.5 mph50%30.24 "HgN/A
5:20 PM46 °FPartly sunny.5 mph50%30.24 "HgN/A
4:50 PM46 °FPartly sunny.6 mph50%30.24 "HgN/A
4:20 PM46 °FPartly sunny.8 mph50%30.24 "HgN/A
3:50 PM48 °FPartly sunny.7 mph50%30.24 "HgN/A
3:20 PM48 °FBroken clouds.6 mph50%30.24 "HgN/A
2:50 PM48 °FBroken clouds.5 mph50%30.24 "HgN/A
2:20 PM48 °FScattered clouds.2 mph54%30.24 "HgN/A
1:50 PM46 °FPartly sunny.1 mph57%30.24 "HgN/A
1:20 PM48 °FSunny.No wind58%30.24 "Hg10 mi
12:50 PM46 °FPartly sunny.No wind62%30.24 "HgN/A
12:20 PM45 °FPartly sunny.No wind71%30.24 "HgN/A
11:50 AM45 °FPartly sunny.2 mph71%30.24 "HgN/A
11:20 AM43 °FPartly sunny.No wind71%30.24 "HgN/A
10:50 AM43 °FPartly sunny.1 mph71%30.24 "HgN/A
10:20 AM45 °FPartly sunny.No wind61%30.24 "HgN/A
Weather by CustomWeather, © 2016

See weather overviewHow to use our weather pages